TimeEDT,TemperatureF,Dew PointF,Humidity,Sea Level PressureIn,VisibilityMPH,Wind Direction,Wind SpeedMPH,Gust SpeedMPH,PrecipitationIn,Events,Conditions,WindDirDegrees,DateUTC
1:40 AM,57.2,-9999,N/A,-9999,1.8,Calm,Calm,-,N/A,,Overcast,0,2012-10-23 05:40:00
1:58 AM,59.0,57.2,94,29.91,1.5,Calm,Calm,-,N/A,,Overcast,0,2012-10-23 05:58:00
2:56 AM,59.0,57.2,94,29.90,3.0,Calm,Calm,-,N/A,,Drizzle,0,2012-10-23 06:56:00
3:56 AM,59.0,57.2,94,29.89,4.0,NNE,5.8,-,N/A,,Overcast,20,2012-10-23 07:56:00
4:16 AM,57.2,57.2,100,29.90,4.0,North,4.6,-,N/A,,Overcast,350,2012-10-23 08:16:00
4:36 AM,57.2,55.4,94,29.90,3.0,NW,4.6,-,N/A,,Overcast,320,2012-10-23 08:36:00
4:56 AM,57.2,55.4,94,29.91,3.0,NNE,5.8,-,N/A,,Overcast,20,2012-10-23 08:56:00
5:16 AM,57.2,55.4,94,29.91,3.0,North,5.8,-,N/A,,Overcast,360,2012-10-23 09:16:00
6:16 AM,57.2,55.4,94,-9999,2.5,NNE,8.1,-,N/A,,Overcast,20,2012-10-23 10:16:00
6:56 AM,57.2,55.4,94,29.91,3.0,NNE,5.8,-,N/A,,Overcast,30,2012-10-23 10:56:00
7:36 AM,57.2,55.4,94,29.93,3.0,ENE,3.5,-,N/A,,Overcast,60,2012-10-23 11:36:00
7:58 AM,57.2,55.4,94,29.93,2.5,SSW,8.1,-,N/A,,Overcast,200,2012-10-23 11:58:00
8:36 AM,57.2,55.4,94,29.93,1.5,South,6.9,-,N/A,,Overcast,190,2012-10-23 12:36:00
9:18 AM,57.2,57.2,100,29.93,1.2,NE,5.8,-,N/A,,Overcast,40,2012-10-23 13:18:00
10:56 AM,59.0,57.2,94,29.97,1.0,ESE,8.1,-,N/A,,Overcast,110,2012-10-23 14:56:00
11:17 AM,-9999,-9999,N/A,-9999,-9999.0,North,-9999.0,-,N/A,,Unknown,0,2012-10-23 15:17:00
11:40 AM,59.0,57.2,94,29.99,1.2,ESE,9.2,-,N/A,,Overcast,110,2012-10-23 15:40:00
11:57 AM,59.0,57.2,94,29.98,1.2,ESE,6.9,-,N/A,,Overcast,110,2012-10-23 15:57:00
12:18 PM,59.0,59.0,100,29.98,2.5,East,5.8,-,N/A,,Overcast,90,2012-10-23 16:18:00
12:59 PM,59.0,57.2,94,29.97,4.0,East,5.8,-,N/A,,Overcast,80,2012-10-23 16:59:00
1:17 PM,59.0,57.2,94,29.97,2.5,East,5.8,-,N/A,,Overcast,90,2012-10-23 17:17:00
1:57 PM,59.0,57.2,94,29.95,4.0,East,5.8,-,N/A,,Overcast,90,2012-10-23 17:57:00
2:17 PM,59.0,57.2,94,29.93,5.0,East,6.9,-,N/A,,Overcast,80,2012-10-23 18:17:00
2:36 PM,59.0,57.2,94,29.93,5.0,East,5.8,-,N/A,,Overcast,100,2012-10-23 18:36:00
2:57 PM,59.0,57.2,94,29.93,7.0,East,4.6,-,N/A,,Overcast,90,2012-10-23 18:57:00
3:16 PM,60.8,57.2,88,29.94,7.0,East,6.9,-,N/A,,Overcast,100,2012-10-23 19:16:00
3:36 PM,60.8,57.2,88,29.94,7.0,East,6.9,-,N/A,,Overcast,100,2012-10-23 19:36:00
3:57 PM,60.8,57.2,88,29.93,10.0,East,6.9,-,N/A,,Overcast,100,2012-10-23 19:57:00
4:16 PM,60.8,57.2,88,29.93,10.0,East,6.9,-,N/A,,Overcast,90,2012-10-23 20:16:00
4:36 PM,60.8,57.2,88,29.93,10.0,East,5.8,-,N/A,,Overcast,90,2012-10-23 20:36:00
5:56 PM,59.0,57.2,94,29.96,5.0,South,9.2,-,N/A,Rain,Rain,180,2012-10-23 21:56:00
6:40 PM,59.0,57.2,94,29.93,3.0,ESE,8.1,-,N/A,Rain,Rain,110,2012-10-23 22:40:00
7:36 PM,59.0,57.2,94,29.94,10.0,ESE,6.9,-,N/A,,Overcast,110,2012-10-23 23:36:00
7:56 PM,59.0,57.2,94,29.96,10.0,East,5.8,-,N/A,,Overcast,100,2012-10-23 23:56:00
8:16 PM,59.0,57.2,94,29.97,10.0,East,5.8,-,N/A,,Overcast,100,2012-10-24 00:16:00
8:36 PM,57.2,55.4,94,29.97,10.0,East,3.5,-,N/A,,Overcast,80,2012-10-24 00:36:00
8:56 PM,57.2,55.4,94,29.97,10.0,East,5.8,-,N/A,,Overcast,100,2012-10-24 00:56:00
9:16 PM,57.2,55.4,94,29.98,10.0,East,4.6,-,N/A,,Overcast,90,2012-10-24 01:16:00
9:36 PM,57.2,55.4,94,29.98,7.0,East,5.8,-,N/A,,Overcast,100,2012-10-24 01:36:00
10:16 PM,57.2,55.4,94,29.98,3.0,East,4.6,-,N/A,,Overcast,100,2012-10-24 02:16:00
10:36 PM,55.4,55.4,100,29.98,2.0,East,5.8,-,N/A,,Overcast,100,2012-10-24 02:36:00
10:57 PM,55.4,55.4,100,29.98,1.8,ESE,5.8,-,N/A,,Overcast,120,2012-10-24 02:57:00
11:56 PM,55.4,55.4,100,29.98,3.0,ESE,3.5,-,N/A,,Overcast,120,2012-10-24 03:56:00